User: anonymous   Login
Location: Unspecified
(0.0000°N, 0.0000°E)
Time: 21:34:38
(UTC+00:00)
Language:

Tiangong 1 - Orbit

View from above orbital plane
View from above orbital plane
View from above satellite
View from above satellite

Ground track
Ground track

The orbit data is extracted from the following two-line orbital elements,

1 37820U 11053A   15065.55802083  .00055730  00000-0  41556-3 0  9992
2 37820 042.7664 170.2313 0009670 136.0584 049.7867 15.71853015197247
Epoch (UTC): 06 March 2015 13:23:33
Eccentricity: 0.0009670
inclination: 42.7664°
perigee height: 347 km
apogee height: 360 km
right ascension of ascending node: 170.2313°
argument of perigee: 136.0584°
revolutions per day: 15.71853015
mean anomaly at epoch: 49.7867°
orbit number at epoch: 19724

The dashed part of the orbit path shows where the satellite is in the earth's shadow,  

DLR